Location: Fort Worth, Tx
(32.7431°N, 97.3695°W)
Time: 10:47:23
(UTC-04:00)

Oscar 19 - Visible Passes

Search period start: 21 March 2023 00:00
Search period end: 31 March 2023 00:00
Orbit: 772 x 790 km, 98.8° (Epoch: 20 March)

Date Brightness Start Highest point End Pass type
(mag) Time Alt. Az. Time Alt. Az. Time Alt. Az.
21 Mar 10.5 06:37:02 10° N 06:42:11 82° WNW 06:43:45 46° SSW visible
22 Mar 11.5 06:05:06 10° NNE 06:10:01 46° E 06:11:23 37° SE visible
22 Mar 12.1 07:45:34 10° NNW 07:48:52 17° WNW 07:51:56 11° WSW visible
23 Mar 12.7 05:33:52 10° NE 05:37:44 21° E 05:39:01 19° ESE visible
23 Mar 11.2 07:12:21 10° N 07:17:00 36° WNW 07:19:34 22° WSW visible
24 Mar 10.5 06:39:51 10° N 06:44:59 78° WNW 06:47:12 35° SSW visible
25 Mar 11.4 06:07:52 10° NNE 06:12:50 48° E 06:14:49 32° SSE visible
25 Mar 12.2 07:48:31 10° NNW 07:51:39 17° WNW 07:54:48 10° WSW visible
26 Mar 12.7 05:36:34 10° NE 05:40:33 22° E 05:42:26 18° SE visible
26 Mar 11.3 07:15:12 10° N 07:19:48 34° WNW 07:22:59 18° SW visible
27 Mar 10.5 06:42:39 10° N 06:47:47 74° WNW 06:50:36 27° SSW visible
28 Mar 11.3 06:10:38 10° NNE 06:15:39 51° E 06:18:14 27° SSE visible
28 Mar 12.2 07:51:27 10° NNW 07:54:26 16° WNW 07:57:25 10° WSW visible
29 Mar 12.6 05:39:16 10° NE 05:43:22 24° E 05:45:50 17° SE visible
29 Mar 11.4 07:18:03 10° N 07:22:35 32° WNW 07:26:23 14° SW visible
30 Mar 13.5 05:10:08 10° E 05:10:57 10° E 05:11:47 10° ESE visible
30 Mar 10.5 06:45:28 10° N 06:50:36 69° WNW 06:53:59 21° SSW visible
